SBIRS GEO-4 (USA 273)

Last updated on Sun Apr 12 2026 00:02:54 GMT+0000 (Coordinated Universal Time)

1 41937U 17004A 26101.52485074 .00000127 00000+0 00000+0 0 9999 2 41937 2.1182 41.2963 0002359 341.4090 26.8881 1.00272596 33938
UTC large
Height (km)
Speed (km/s)
/
Latitude / Longitude
Inclination (degrees)
Orbital Period (minutes)
Azimuth
Elevation
Range (km)
Doppler Factor

Next 0 passes for location: London (51.5072 / 0.1276)

Sorry there are no passes over London.
SBIRS GEO-4 (USA 273)